Location: Skalnate Pleso
(49.1889°N, 20.2450°E)
Time: 09:48:32
(UTC+01:00)

Cosmos 1833 - Pass Details

Date: 19 November 2019
Orbit: 835 x 864 km, 70.9° (Epoch: 09 December)

Event Time Altitude Azimuth Distance (km) Brightness Sun altitude
Rises 05:19:45 0° 200° (SSW) 3,370 7.3 -15.3°
Reaches altitude 10° 05:22:11 10° 198° (SSW) 2,440 6.5 -14.9°
Maximum altitude 05:27:45 74° 115° (ESE) 874 4.4 -14.0°
Drops below altitude 10° 05:33:23 10° 32° (NNE) 2,463 6.8 -13.1°
Sets 05:35:50 0° 30° (NNE) 3,404 7.6 -12.7°
